This is the latest recevied weather packets stored in our database for station/object GW1699. If no packets are shown the sender has not sent any weather packets the latest 10 day(s).
| Time | Temp. | Humidity | Pressure | Rain* | Wind** | Luminosity | Snow |
|---|---|---|---|---|---|---|---|
| 1777623876 | 2.22° C | 99% | 1013.2 hPa | 0 mm | - | - | - |
| 1777623144 | 2.22° C | 99% | 1013.5 hPa | 0 mm | - | - | - |
| 1777621373 | 1.67° C | 99% | 1013.5 hPa | 0 mm | - | - | - |
| 1777620987 | 2.22° C | 99% | 1013.5 hPa | 0 mm | - | - | - |
| 1777618453 | 2.22° C | 99% | 1013.8 hPa | 0 mm | - | - | - |
| 1777615948 | 2.78° C | 99% | 1013.8 hPa | 0 mm | - | - | - |
| 1777613420 | 2.78° C | 99% | 1014.2 hPa | 0 mm | - | - | - |
| 1777605170 | 3.89° C | 99% | 1014.9 hPa | 3.56 mm | - | - | - |
| 1777604801 | 3.89° C | 99% | 1014.9 hPa | 3.56 mm | - | - | - |
| 1777602278 | 4.44° C | 99% | 1014.9 hPa | 3.56 mm | - | - | - |
| 1777600495 | 5.56° C | 98% | 1014.2 hPa | 3.56 mm | - | - | - |
| 1777598331 | 6.11° C | 94% | 1013.8 hPa | 3.56 mm | - | - | - |
| 1777595807 | 8.33° C | 94% | 1013.5 hPa | 3.56 mm | - | - | - |
| 1777592921 | 8.89° C | 94% | 1013.2 hPa | 3.56 mm | - | - | - |
| 1777590413 | 9.44° C | 92% | 1013.2 hPa | 3.56 mm | - | - | - |
| 1777588951 | 10.56° C | 85% | 1012.8 hPa | 3.56 mm | - | - | - |
| 1777584619 | 8.89° C | 88% | 1013.2 hPa | 3.56 mm | - | - | - |
| 1777583566 | 10° C | 84% | 1013.2 hPa | 3.56 mm | - | - | - |
| 1777573462 | 11.11° C | 76% | 1012.1 hPa | 2.54 mm | - | - | - |
| 1777573122 | 11.11° C | 84% | 1012.1 hPa | 2.54 mm | - | - | - |
| 1777568074 | 11.11° C | 70% | 1011.8 hPa | 2.29 mm | - | - | - |
| 1777564853 | 11.11° C | 72% | 1011.8 hPa | 2.29 mm | - | - | - |
| 1777564461 | 10.56° C | 68% | 1011.8 hPa | 2.29 mm | - | - | - |
| 1777555118 | 10.56° C | 90% | 1011.1 hPa | 2.29 mm | - | - | - |
| 1777554031 | 9.44° C | 90% | 1011.1 hPa | 2.29 mm | - | - | - |
* Rain since midnight (hover to see other rain measurements)
** Current wind speed in m/s (hover to see current wind gust speed)